Tracking 22882 objects as of 18-Apr-2021
HD Live streaming from Space Station
objects crossing your sky now

COSMOS 2065

Track COSMOS 2065 now!
10-day predictions
COSMOS 2065 is classified as:


NORAD ID: 20550
Int'l Code: 1990-029B
Perigee: 1,468.3 km
Apogee: 1,481.9 km
Inclination: 74.0 °
Period: 115.3 minutes
Semi major axis: 7846 km
RCS: 0.6645 m2 (medium)
Launch date: April 6, 1990
Source: Commonwealth of Independent States (former USSR) (CIS)
Launch site: PLESETSK MISSILE AND SPACE COMPLEX (PKMTR)
aabbcc
Your satellite tracking list
Your tracking list is empty




NASA's NSSDC Master Catalog

Two Line Element Set (TLE):
1 20550U 90029B   21108.59491090 -.00000014  00000-0  12903-4 0  9996
2 20550  73.9790 288.1149 0008706 279.2864 151.4679 12.49168041415246
Source of the keplerian elements: AFSPC